Osceola Municipal, IA

5:06 AM CDT on July 28, 2017 (GMT -0500)
Osceola Municipal

Weather History for KI75 - December, 2012

Change the Weather History Date:

Monday, December 24, 2012

  Actual Average (KCNC) Record (KCNC)
Temperature  
Mean Temperature 16 °F -  
Max Temperature 21 °F 32 °F 56 °F (1955)
Min Temperature 12 °F 11 °F -25 °F (1989)
Degree Days  
Heating Degree Days 48    
Moisture  
Dew Point 13 °F    
Average Humidity 83    
Maximum Humidity 93    
Minimum Humidity 71    
Precipitation  
Precipitation 0.00 in - - ()
Sea Level Pressure  
Sea Level Pressure 30.04 in    
Wind  
Wind Speed 10 mph (NW)    
Max Wind Speed 18 mph    
Max Gust Speed 24 mph    
Visibility 7 miles    
Events Snow    
Averages and records for this station are not official NWS values.
T = Trace of Precipitation, MM = Missing Value Source: NWS Daily Summary

Daily Weather History Graph

Daily Weather History Graph

Search for Another Location

Airport or City:

Trip Planner

Search our weather history database for the weather conditions in past years. The results will help you decide how hot, cold, wet, or windy it might be!

Date:

Astronomy

Dec. 24, 2012 Rise Set
Actual Time 7:37 AM CST 4:51 PM CST
Civil Twilight 7:06 AM CST 5:22 PM CST
Nautical Twilight 6:32 AM CST 5:57 PM CST
Astronomical Twilight 5:58 AM CST 6:30 PM CST
Moon 2:19 PM CST (12/24) 4:16 AM CST (12/24)
Length of Visible Light 10h 15m
Length of Day
9h 13m
Waxing Gibbous, 88% of the Moon is Illuminated
Dec 24
Waxing Gibbous
Dec 28
Full
Jan 4
Last Quarter
Jan 11
New
Jan 18
First Quarter

Hourly Weather History & Observations

Time (CST) Temp. Windchill Dew Point Humidity Pressure Visibility Wind Dir Wind Speed Gust Speed Precip Events Conditions
12:15 AM 17.6 °F 9.3 °F 15.4 °F 91% 29.94 in 5.0 mi North 5.8 mph - N/A   Overcast
12:35 AM 17.6 °F 9.3 °F 15.6 °F 92% 29.94 in 4.0 mi North 5.8 mph - N/A   Overcast
12:55 AM 17.6 °F 8.2 °F 15.8 °F 93% 29.95 in 3.0 mi NNW 6.9 mph - N/A   Overcast
1:15 AM 17.6 °F 6.4 °F 15.6 °F 92% 29.96 in 2.0 mi NW 9.2 mph - N/A   Overcast
1:35 AM 17.4 °F 6.2 °F 15.4 °F 92% 29.95 in 1.5 mi NW 9.2 mph - N/A   Overcast
1:55 AM 17.1 °F 5.8 °F 14.9 °F 91% 29.94 in 2.0 mi NW 9.2 mph - N/A   Overcast
2:15 AM 16.9 °F 6.4 °F 14.7 °F 91% 29.94 in 2.0 mi NW 8.1 mph - N/A   Overcast
2:35 AM 17.1 °F 6.6 °F 14.7 °F 91% 29.94 in 2.5 mi NNW 8.1 mph - N/A   Overcast
2:55 AM 17.4 °F 9.1 °F 14.9 °F 90% 29.95 in 2.5 mi NW 5.8 mph - N/A   Overcast
3:15 AM 17.4 °F 10.4 °F 15.1 °F 91% 29.94 in 2.5 mi NW 4.6 mph - N/A   Overcast
3:35 AM 17.4 °F 5.4 °F 15.1 °F 91% 29.95 in 3.0 mi WNW 10.4 mph - N/A   Overcast
3:55 AM 17.4 °F 8.0 °F 14.9 °F 90% 29.94 in 2.0 mi NW 6.9 mph - N/A   Overcast
4:15 AM 17.8 °F 9.6 °F 15.6 °F 91% 29.94 in 2.5 mi WNW 5.8 mph - N/A   Overcast
4:35 AM 18.5 °F 10.4 °F 16.5 °F 92% 29.94 in 3.0 mi NW 5.8 mph - N/A   Overcast
4:55 AM 19.0 °F 10.0 °F 16.9 °F 91% 29.94 in 3.0 mi NW 6.9 mph - N/A   Overcast
5:15 AM 19.9 °F 10.1 °F 17.6 °F 91% 29.94 in 4.0 mi WNW 8.1 mph - N/A   Overcast
5:35 AM 20.3 °F 7.7 °F 18.3 °F 92% 29.96 in 4.0 mi NW 12.7 mph - N/A   Overcast
5:55 AM 19.9 °F 6.7 °F 17.8 °F 91% 29.97 in 5.0 mi NW 13.8 mph 17.3 mph N/A   Overcast
6:15 AM 19.9 °F 6.7 °F 17.6 °F 91% 29.97 in 5.0 mi WNW 13.8 mph - N/A   Overcast
6:35 AM 20.3 °F 6.6 °F 18.1 °F 91% 29.98 in 5.0 mi WNW 15.0 mph 18.4 mph N/A   Overcast
6:55 AM 20.3 °F 7.7 °F 18.3 °F 92% 29.99 in 5.0 mi WNW 12.7 mph 18.4 mph N/A   Overcast
7:15 AM 20.1 °F 8.1 °F 17.8 °F 91% 29.99 in 5.0 mi WNW 11.5 mph - N/A   Overcast
7:35 AM 19.8 °F 7.1 °F 17.4 °F 91% 29.99 in 7.0 mi WNW 12.7 mph 17.3 mph N/A   Overcast
7:55 AM 18.7 °F 7.8 °F 16.3 °F 91% 29.98 in 5.0 mi NNW 9.2 mph - N/A Snow Light Snow
8:15 AM 18.3 °F 5.2 °F 15.4 °F 89% 29.98 in 10.0 mi NNW 12.7 mph 16.1 mph N/A   Overcast
8:35 AM 18.0 °F 4.8 °F 14.7 °F 87% 29.99 in 10.0 mi NW 12.7 mph 17.3 mph N/A   Overcast
8:55 AM 18.3 °F 5.9 °F 14.0 °F 83% 30.00 in 7.0 mi NW 11.5 mph - N/A Snow Light Snow
9:15 AM 18.5 °F 4.9 °F 12.9 °F 79% 30.01 in 7.0 mi NW 13.8 mph 18.4 mph N/A Snow Light Snow
9:35 AM 18.5 °F 4.9 °F 12.4 °F 77% 30.03 in 10.0 mi WNW 13.8 mph 17.3 mph N/A Snow Light Snow
9:55 AM 18.5 °F 6.1 °F 13.5 °F 81% 30.03 in 2.5 mi WNW 11.5 mph - N/A Snow Light Snow
10:15 AM 18.5 °F 4.9 °F 13.1 °F 79% 30.04 in 3.0 mi WNW 13.8 mph - N/A Snow Light Snow
10:35 AM 18.5 °F 5.5 °F 11.3 °F 73% 30.04 in 7.0 mi NW 12.7 mph 17.3 mph N/A Snow Light Snow
10:55 AM 18.5 °F 3.8 °F 11.3 °F 73% 30.04 in 7.0 mi NW 16.1 mph - N/A Snow Light Snow
11:15 AM 19.0 °F 4.5 °F 11.5 °F 72% 30.04 in 10.0 mi WNW 16.1 mph 21.9 mph N/A Snow Light Snow
11:35 AM 19.4 °F 7.2 °F 11.5 °F 71% 30.04 in 10.0 mi WNW 11.5 mph 17.3 mph N/A   Overcast
11:55 AM 19.6 °F 6.8 °F 12.4 °F 74% 30.04 in 7.0 mi NW 12.7 mph - N/A Snow Light Snow
12:15 PM 20.1 °F 7.5 °F 12.9 °F 74% 30.03 in 7.0 mi WNW 12.7 mph 19.6 mph N/A Snow Light Snow
12:35 PM 20.1 °F 6.4 °F 13.8 °F 77% 30.03 in 5.0 mi WNW 15.0 mph - N/A Snow Light Snow
12:55 PM 21.0 °F 7.6 °F 13.1 °F 71% 30.02 in 5.0 mi WNW 15.0 mph - N/A   Haze
1:15 PM 20.8 °F 7.3 °F 13.1 °F 72% 30.03 in 10.0 mi NW 15.0 mph 19.6 mph N/A   Overcast
1:35 PM 21.0 °F 8.6 °F 13.1 °F 71% 30.03 in 10.0 mi NW 12.7 mph - N/A   Overcast
1:55 PM 20.7 °F 6.6 °F 12.7 °F 71% 30.03 in 10.0 mi NNW 16.1 mph 24.2 mph N/A   Mostly Cloudy
2:15 PM 20.1 °F 5.0 °F 12.7 °F 73% 30.03 in 10.0 mi NNW 18.4 mph 23.0 mph N/A   Overcast
2:35 PM 20.3 °F 7.7 °F 13.3 °F 74% 30.03 in 10.0 mi NNW 12.7 mph 20.7 mph N/A   Overcast
2:55 PM 20.3 °F 6.6 °F 13.6 °F 75% 30.03 in 10.0 mi NNW 15.0 mph 20.7 mph N/A   Overcast
3:15 PM 20.3 °F 6.1 °F 13.8 °F 76% 30.05 in 10.0 mi NNW 16.1 mph 20.7 mph N/A   Overcast
3:35 PM 19.8 °F 6.5 °F 13.1 °F 75% 30.06 in 10.0 mi NW 13.8 mph 20.7 mph N/A   Mostly Cloudy
3:55 PM 19.4 °F 7.2 °F 13.1 °F 76% 30.07 in 10.0 mi NW 11.5 mph - N/A   Mostly Cloudy
4:15 PM 19.4 °F 8.6 °F 13.1 °F 76% 30.07 in 10.0 mi NW 9.2 mph - N/A   Scattered Clouds
4:35 PM 19.0 °F 7.5 °F 13.1 °F 78% 30.09 in 10.0 mi NW 10.4 mph - N/A   Clear
4:55 PM 19.0 °F 9.0 °F 13.1 °F 78% 30.10 in 10.0 mi WNW 8.1 mph - N/A   Clear
5:15 PM 18.5 °F 8.4 °F 13.1 °F 79% 30.11 in 10.0 mi WNW 8.1 mph - N/A   Scattered Clouds
5:35 PM 18.3 °F 8.2 °F 13.1 °F 80% 30.12 in 10.0 mi WNW 8.1 mph - N/A   Scattered Clouds
5:55 PM 18.3 °F 7.3 °F 13.1 °F 80% 30.13 in 10.0 mi NW 9.2 mph - N/A   Mostly Cloudy
6:15 PM 17.8 °F 7.5 °F 12.9 °F 81% 30.14 in 10.0 mi NW 8.1 mph - N/A   Scattered Clouds
6:35 PM 17.2 °F 6.8 °F 12.6 °F 82% 30.14 in 10.0 mi NW 8.1 mph - N/A   Clear
6:55 PM 16.7 °F 6.2 °F 12.2 °F 82% 30.15 in 10.0 mi NW 8.1 mph - N/A   Clear
7:15 PM 16.3 °F 5.7 °F 11.8 °F 82% 30.15 in 10.0 mi NW 8.1 mph - N/A   Clear
7:35 PM 15.8 °F 5.1 °F 11.3 °F 82% 30.15 in 10.0 mi NNW 8.1 mph - N/A   Clear
7:55 PM 15.8 °F 2.1 °F 11.3 °F 82% 30.15 in 10.0 mi NNW 12.7 mph - N/A   Clear
8:15 PM 15.3 °F 1.4 °F 10.6 °F 82% 30.14 in 10.0 mi NNW 12.7 mph - N/A   Clear
8:35 PM 14.9 °F 2.3 °F 10.4 °F 82% 30.15 in 10.0 mi North 10.4 mph - N/A   Clear
8:55 PM 14.9 °F 1.6 °F 10.2 °F 82% 30.14 in 10.0 mi North 11.5 mph - N/A   Clear
9:15 PM 14.5 °F 2.7 °F 9.9 °F 82% 30.16 in 10.0 mi North 9.2 mph - N/A   Clear
9:35 PM 14.0 °F 0.5 °F 9.5 °F 82% 30.16 in 10.0 mi NNW 11.5 mph - N/A   Clear
9:55 PM 14.0 °F -0.2 °F 9.5 °F 82% 30.16 in 10.0 mi North 12.7 mph - N/A   Clear
10:15 PM 13.6 °F 0.7 °F 9.0 °F 82% 30.18 in 10.0 mi North 10.4 mph - N/A   Scattered Clouds
10:35 PM 13.5 °F -0.9 °F 8.6 °F 81% 30.18 in 10.0 mi North 12.7 mph - N/A   Scattered Clouds
10:55 PM 13.1 °F 0.9 °F 8.4 °F 82% 30.18 in 10.0 mi North 9.2 mph - N/A   Scattered Clouds
11:15 PM 12.9 °F -0.9 °F 8.2 °F 82% 30.19 in 10.0 mi North 11.5 mph - N/A   Clear
11:35 PM 12.6 °F -0.6 °F 7.7 °F 81% 30.20 in 10.0 mi North 10.4 mph - N/A   Scattered Clouds
11:55 PM 12.2 °F -1.8 °F 7.7 °F 82% 30.20 in 10.0 mi North 11.5 mph - N/A   Mostly Cloudy